ENT2621 EDDS-BKPR

Flight info

Callsign ENT2621
Flight time N/A
Altitude 33000
Route ABTAL4H ABTAL L173 RIXED Y161 MAH L173 OTT M867 VAVOR DCT RADIZ DCT NEMEK DCT NILKU DCT AKIKA DCT MAVAR P92 BUREK T197 XAXAN XAXAN1D
Aircraft A320/M-SDE3FGHIRWY/LB1

Departure

Time N/A
Airport Stuttgart Airport (EDDS)

Arrival

Time 2026-04-26 16:46
Airport Priština Adem Jashari International Airport (BKPR)
Time Latitude Longitude Altitude Speed Heading
2026-04-26 15:27 47.74301 12.39322 33162 ft 473 kts 143°
2026-04-26 15:28 47.69267 12.45624 33159 ft 473 kts 143°
2026-04-26 15:28 47.64221 12.51902 33162 ft 473 kts 143°
2026-04-26 15:29 47.59243 12.58316 33160 ft 475 kts 140°
2026-04-26 15:30 47.49809 12.72025 33145 ft 475 kts 138°
2026-04-26 15:30 47.45048 12.78797 33147 ft 475 kts 139°
2026-04-26 15:31 47.37838 12.88848 33149 ft 475 kts 139°
2026-04-26 15:32 47.32217 12.96671 33159 ft 476 kts 139°
2026-04-26 15:32 47.25826 13.05600 33140 ft 475 kts 138°
2026-04-26 15:33 47.21808 13.11202 33146 ft 475 kts 138°
2026-04-26 15:33 47.17003 13.17863 33137 ft 475 kts 139°
2026-04-26 15:34 47.12194 13.24509 33134 ft 475 kts 139°
2026-04-26 15:34 47.07384 13.31141 33129 ft 474 kts 138°
2026-04-26 15:35 47.02571 13.37768 33127 ft 474 kts 138°
2026-04-26 15:35 46.97759 13.44376 33106 ft 474 kts 138°
2026-04-26 15:36 46.92948 13.50963 33100 ft 474 kts 138°
2026-04-26 15:36 46.88126 13.57549 33096 ft 474 kts 139°
2026-04-26 15:37 46.83307 13.64115 33105 ft 474 kts 139°
2026-04-26 15:37 46.78480 13.70663 33096 ft 473 kts 138°
2026-04-26 15:38 46.73658 13.77193 33079 ft 473 kts 138°
2026-04-26 15:38 46.68838 13.83723 33077 ft 473 kts 138°
2026-04-26 15:39 46.64015 13.90238 33085 ft 473 kts 139°
2026-04-26 15:39 46.60003 13.95632 33080 ft 472 kts 139°
2026-04-26 15:40 46.54361 14.03201 33076 ft 472 kts 139°
2026-04-26 15:40 46.49526 14.09662 33069 ft 472 kts 139°
2026-04-26 15:41 46.44690 14.16107 33068 ft 472 kts 139°
2026-04-26 15:41 46.39853 14.22553 33072 ft 472 kts 139°
2026-04-26 15:42 46.35006 14.28991 33067 ft 473 kts 139°
2026-04-26 15:42 46.30154 14.35414 33069 ft 473 kts 139°
2026-04-26 15:43 46.25293 14.41834 33064 ft 473 kts 139°
2026-04-26 15:44 46.17996 14.51454 33076 ft 474 kts 139°
2026-04-26 15:44 46.10684 14.61045 33072 ft 474 kts 139°
2026-04-26 15:45 46.03353 14.70610 33071 ft 474 kts 139°
2026-04-26 15:46 45.96027 14.80162 33079 ft 474 kts 139°
2026-04-26 15:46 45.91965 14.85435 33083 ft 474 kts 139°
2026-04-26 15:47 45.83793 14.96003 33081 ft 474 kts 139°
2026-04-26 15:48 45.78903 15.02336 33083 ft 474 kts 139°
2026-04-26 15:48 45.74004 15.08651 33091 ft 474 kts 139°
2026-04-26 15:49 45.69098 15.14934 33090 ft 473 kts 139°
2026-04-26 15:49 45.64199 15.21198 33095 ft 472 kts 139°
2026-04-26 15:50 45.59303 15.27453 33094 ft 472 kts 139°
2026-04-26 15:50 45.54748 15.34201 33097 ft 473 kts 132°
2026-04-26 15:51 45.50408 15.41246 33079 ft 473 kts 132°
2026-04-26 15:51 45.46063 15.48268 33087 ft 473 kts 132°
2026-04-26 15:52 45.41712 15.55290 33090 ft 473 kts 132°
2026-04-26 15:52 45.37355 15.62297 33087 ft 473 kts 132°
2026-04-26 15:53 45.32992 15.69286 33094 ft 472 kts 132°
2026-04-26 15:53 45.28628 15.76255 33097 ft 472 kts 132°
2026-04-26 15:54 45.24267 15.83216 33098 ft 472 kts 132°
2026-04-26 15:54 45.19897 15.90166 33104 ft 472 kts 132°
2026-04-26 15:55 45.15533 15.97104 33105 ft 471 kts 132°
2026-04-26 15:55 45.11166 16.04029 33102 ft 471 kts 133°
2026-04-26 15:56 45.06786 16.10939 33104 ft 472 kts 133°
2026-04-26 15:56 45.02403 16.17851 33109 ft 472 kts 133°
2026-04-26 15:57 44.98019 16.24749 33094 ft 472 kts 133°
2026-04-26 15:57 44.93632 16.31637 33102 ft 472 kts 133°
2026-04-26 15:58 44.89239 16.38514 33099 ft 472 kts 133°
2026-04-26 15:58 44.84841 16.45378 33098 ft 471 kts 133°
2026-04-26 15:59 44.80439 16.52222 33097 ft 471 kts 133°
2026-04-26 15:59 44.76033 16.59054 33103 ft 471 kts 133°
2026-04-26 16:00 44.71632 16.65876 33086 ft 471 kts 133°
2026-04-26 16:00 44.67228 16.72681 33087 ft 471 kts 133°
2026-04-26 16:01 44.62817 16.79480 33089 ft 470 kts 133°
2026-04-26 16:01 44.58407 16.86263 33095 ft 470 kts 133°
2026-04-26 16:02 44.53995 16.93023 33093 ft 470 kts 133°
2026-04-26 16:02 44.49581 16.99779 33095 ft 470 kts 133°
2026-04-26 16:03 44.45161 17.06522 33088 ft 470 kts 133°
2026-04-26 16:03 44.40737 17.13256 33095 ft 470 kts 133°
2026-04-26 16:04 44.36314 17.19986 33100 ft 470 kts 133°
2026-04-26 16:04 44.31886 17.26699 33105 ft 470 kts 133°
2026-04-26 16:05 44.27447 17.33396 33102 ft 470 kts 133°
2026-04-26 16:05 44.23012 17.40091 33096 ft 470 kts 133°
2026-04-26 16:06 44.18572 17.46775 33099 ft 470 kts 133°
2026-04-26 16:06 44.14133 17.53451 33102 ft 470 kts 133°
2026-04-26 16:07 44.09688 17.60108 33093 ft 469 kts 133°
2026-04-26 16:07 44.05238 17.66758 33096 ft 470 kts 133°
2026-04-26 16:08 44.00779 17.73406 33097 ft 470 kts 133°
2026-04-26 16:08 43.96307 17.80046 33086 ft 471 kts 133°
2026-04-26 16:09 43.91836 17.86683 33089 ft 471 kts 133°
2026-04-26 16:09 43.87364 17.93307 33090 ft 470 kts 133°
2026-04-26 16:10 43.82880 17.99908 33091 ft 470 kts 133°
2026-04-26 16:10 43.78396 18.06515 33089 ft 471 kts 134°
2026-04-26 16:11 43.73900 18.13121 33096 ft 472 kts 133°
2026-04-26 16:11 43.69402 18.19716 33104 ft 471 kts 133°
2026-04-26 16:12 43.65636 18.25227 33103 ft 471 kts 133°
2026-04-26 16:12 43.58882 18.35079 33088 ft 471 kts 134°
2026-04-26 16:13 43.54384 18.41630 33084 ft 470 kts 134°
2026-04-26 16:13 43.49882 18.48170 33082 ft 470 kts 134°
2026-04-26 16:14 43.45364 18.54703 33074 ft 471 kts 134°
2026-04-26 16:15 43.38587 18.64496 33071 ft 471 kts 134°
2026-04-26 16:15 43.33959 18.70871 33070 ft 471 kts 141°
2026-04-26 16:16 43.26361 18.79433 33070 ft 471 kts 141°
2026-04-26 16:16 43.21295 18.85154 33072 ft 472 kts 141°
2026-04-26 16:17 43.16219 18.90870 33074 ft 472 kts 141°
2026-04-26 16:17 43.11132 18.96569 33072 ft 472 kts 141°
2026-04-26 16:18 43.03487 19.05093 33063 ft 473 kts 141°
2026-04-26 16:19 42.95844 19.13613 33063 ft 472 kts 141°
2026-04-26 16:20 42.88212 19.22091 33066 ft 472 kts 141°
2026-04-26 16:20 42.80573 19.30561 33067 ft 472 kts 142°
2026-04-26 16:21 42.75471 19.36181 33046 ft 472 kts 142°
2026-04-26 16:21 42.70364 19.41802 33056 ft 472 kts 142°
2026-04-26 16:22 42.65266 19.47411 33058 ft 471 kts 142°
2026-04-26 16:22 42.60163 19.53012 33052 ft 472 kts 142°
2026-04-26 16:23 42.55052 19.58605 33050 ft 472 kts 142°
2026-04-26 16:23 42.49933 19.64184 33033 ft 472 kts 142°
2026-04-26 16:24 42.44809 19.69761 32922 ft 474 kts 142°
2026-04-26 16:24 42.42237 19.72560 32628 ft 474 kts 142°
2026-04-26 16:24 42.39663 19.75359 32335 ft 475 kts 142°
2026-04-26 16:25 42.37081 19.78158 32053 ft 476 kts 142°
2026-04-26 16:25 42.34490 19.80963 31775 ft 477 kts 142°
2026-04-26 16:25 42.31898 19.83767 31499 ft 479 kts 142°
2026-04-26 16:25 42.29295 19.86583 31223 ft 480 kts 142°
2026-04-26 16:26 42.26689 19.89402 30945 ft 480 kts 142°
2026-04-26 16:26 42.24960 19.91269 30767 ft 481 kts 142°
2026-04-26 16:26 42.21456 19.95044 30376 ft 482 kts 143°
2026-04-26 16:26 42.18828 19.97865 29993 ft 483 kts 143°
2026-04-26 16:27 42.16197 20.00683 29576 ft 484 kts 143°
2026-04-26 16:27 42.13560 20.03508 29155 ft 485 kts 142°
2026-04-26 16:27 42.10920 20.06341 28748 ft 486 kts 143°
2026-04-26 16:27 42.08275 20.09181 28348 ft 487 kts 143°
2026-04-26 16:28 42.05628 20.12019 27942 ft 487 kts 143°
2026-04-26 16:28 42.02970 20.14862 27543 ft 489 kts 143°
2026-04-26 16:28 42.00303 20.17709 27157 ft 490 kts 143°
2026-04-26 16:28 41.97623 20.20563 26778 ft 492 kts 143°
2026-04-26 16:29 41.94933 20.23421 26396 ft 493 kts 143°
2026-04-26 16:29 41.92239 20.26277 26026 ft 493 kts 143°
2026-04-26 16:29 41.89553 20.29124 25656 ft 491 kts 143°
2026-04-26 16:29 41.86880 20.31961 25286 ft 489 kts 143°
2026-04-26 16:30 41.84220 20.34793 24934 ft 487 kts 143°
2026-04-26 16:30 41.81569 20.37612 24577 ft 485 kts 143°
2026-04-26 16:30 41.78928 20.40414 24234 ft 483 kts 143°
2026-04-26 16:30 41.76294 20.43202 23874 ft 482 kts 144°
2026-04-26 16:31 41.73843 20.46255 23506 ft 482 kts 133°
2026-04-26 16:31 41.71891 20.49900 23070 ft 481 kts 120°
2026-04-26 16:31 41.70547 20.53977 22638 ft 478 kts 107°
2026-04-26 16:31 41.69866 20.58302 22216 ft 474 kts 95°
2026-04-26 16:32 41.69848 20.62675 21796 ft 468 kts 83°
2026-04-26 16:32 41.70185 20.65514 21528 ft 465 kts 75°
2026-04-26 16:32 41.71452 20.70996 20984 ft 459 kts 70°
2026-04-26 16:32 41.72448 20.75035 20583 ft 455 kts 70°
2026-04-26 16:33 41.73431 20.79040 20182 ft 451 kts 70°
2026-04-26 16:33 41.74401 20.83014 19803 ft 447 kts 70°
2026-04-26 16:33 41.75362 20.86954 19415 ft 443 kts 70°
2026-04-26 16:33 41.76316 20.90865 19020 ft 440 kts 70°
2026-04-26 16:34 41.77263 20.94753 18648 ft 437 kts 70°
2026-04-26 16:34 41.78201 20.98610 18256 ft 434 kts 70°
2026-04-26 16:34 41.79134 21.02439 17832 ft 431 kts 70°
2026-04-26 16:34 41.80057 21.06249 17406 ft 428 kts 70°
2026-04-26 16:35 41.80970 21.10034 16994 ft 425 kts 70°
2026-04-26 16:35 41.81992 21.13726 16569 ft 419 kts 61°
2026-04-26 16:35 41.83607 21.16923 16165 ft 412 kts 46°
2026-04-26 16:35 41.85682 21.19490 15786 ft 400 kts 34°
2026-04-26 16:36 41.88012 21.21429 15409 ft 389 kts 25°
2026-04-26 16:36 41.90492 21.22748 15046 ft 379 kts 16°
2026-04-26 16:36 41.92975 21.23817 14683 ft 372 kts 15°
2026-04-26 16:36 41.95420 21.24871 14328 ft 366 kts 16°
2026-04-26 16:37 41.97835 21.25906 13976 ft 363 kts 15°
2026-04-26 16:37 42.00231 21.26930 13594 ft 360 kts 15°
2026-04-26 16:37 42.02613 21.27944 13196 ft 358 kts 16°
2026-04-26 16:37 42.04982 21.28954 12810 ft 356 kts 15°
2026-04-26 16:38 42.07335 21.29962 12421 ft 354 kts 16°
2026-04-26 16:38 42.09671 21.30963 12043 ft 351 kts 16°
2026-04-26 16:38 42.12008 21.31872 11666 ft 348 kts
2026-04-26 16:38 42.14398 21.31961 11302 ft 342 kts 351°
2026-04-26 16:39 42.16672 21.31111 10938 ft 339 kts 338°
2026-04-26 16:39 42.18863 21.29964 10490 ft 336 kts 338°
2026-04-26 16:39 42.21029 21.28829 10045 ft 331 kts 338°
2026-04-26 16:39 42.23164 21.27711 9549 ft 327 kts 338°
2026-04-26 16:40 42.25274 21.26605 9061 ft 323 kts 339°
2026-04-26 16:40 42.27334 21.25464 8571 ft 316 kts 332°
2026-04-26 16:40 42.29051 21.23769 8091 ft 299 kts 319°
2026-04-26 16:40 42.30546 21.21930 7680 ft 282 kts 319°
2026-04-26 16:41 42.31982 21.20163 7315 ft 277 kts 319°
2026-04-26 16:41 42.33401 21.18420 6945 ft 274 kts 319°
2026-04-26 16:41 42.34806 21.16702 6589 ft 271 kts 320°
2026-04-26 16:41 42.36193 21.15002 6263 ft 266 kts 320°
2026-04-26 16:42 42.37552 21.13333 5957 ft 264 kts 319°
2026-04-26 16:42 42.38918 21.11653 5657 ft 265 kts 319°
2026-04-26 16:42 42.40273 21.09983 5357 ft 261 kts 320°
2026-04-26 16:42 42.41599 21.08347 5063 ft 255 kts 320°
2026-04-26 16:43 42.42894 21.06753 4765 ft 249 kts 320°
2026-04-26 16:43 42.44240 21.05369 4509 ft 239 kts 335°
2026-04-26 16:43 42.45819 21.04748 4092 ft 238 kts 354°
2026-04-26 16:43 42.47437 21.04585 3715 ft 228 kts 356°
2026-04-26 16:44 42.48965 21.04433 3374 ft 210 kts 356°
2026-04-26 16:44 42.50357 21.04292 3101 ft 191 kts 355°
2026-04-26 16:44 42.51619 21.04164 2799 ft 171 kts 356°
2026-04-26 16:44 42.52742 21.04049 2531 ft 154 kts 358°
2026-04-26 16:45 42.53778 21.03944 2260 ft 147 kts 358°
2026-04-26 16:45 42.54817 21.03823 2032 ft 154 kts 358°
2026-04-26 16:45 42.55876 21.03727 1874 ft 149 kts 358°
2026-04-26 16:45 42.56854 21.03622 1784 ft 128 kts 360°
2026-04-26 16:46 42.57502 21.03573 1776 ft 39 kts 355°
2026-04-26 16:46 42.57656 21.03552 1774 ft 19 kts 354°
2026-04-26 16:46 42.57787 21.03534 1774 ft 19 kts 349°
2026-04-26 16:46 42.57897 21.03437 1774 ft 19 kts 326°
2026-04-26 16:47 42.57981 21.03317 1775 ft 15 kts 258°
2026-04-26 16:47 42.57894 21.03280 1775 ft 13 kts 177°
2026-04-26 16:47 42.57806 21.03288 1776 ft 12 kts 176°
2026-04-26 16:47 42.57741 21.03261 1776 ft 10 kts 244°
2026-04-26 16:48 42.57701 21.03196 1779 ft 11 kts 203°
2026-04-26 16:48 42.57612 21.03193 1777 ft 13 kts 176°
2026-04-26 16:48 42.57548 21.03172 1775 ft 7 kts 266°
2026-04-26 16:48 42.57548 21.03116 1775 ft 5 kts 269°
2026-04-26 16:49 42.57547 21.03105 1775 ft 0 kts 269°